Location: P�rn�nmaa
(61.1833°N, 23.0000°E)
Time: 18:25:45
(UTC+00:00)

Cosmos 921 Rocket - Pass Details

Date: 08 December 2019
Orbit: 572 x 632 km, 75.8° (Epoch: 16 January)

Event Time Altitude Azimuth Distance (km) Brightness Sun altitude
Rises 14:24:22 0° 327° (NNW) 2,801 6.4 -7.1°
Reaches altitude 10° 14:26:59 10° 343° (NNW) 1,904 5.4 -7.4°
Maximum altitude 14:30:19 22° 35° (NE) 1,293 4.2 -7.7°
Drops below altitude 10° 14:33:41 10° 88° (E) 1,919 5.1 -8.0°
Enters shadow 14:35:51 - 101° (ESE) 2,655 5.9 -8.3°
